Terug naar catalogus

IUS R/B(2)

ActiefGEO
NORAD 23438·ROCKET BODY·🇺🇸 United States

Gelanceerd Dec 22, 1994 vanaf Cape Canaveral Space Force Station

Loading…

TLE

VersSource: Space-Track

Epoch: Sep 11, 2026, 20:09 UTC

1 23438U 94084D   26254.84007397 -.00000163  00000-0  00000+0 0  9992
2 23438  14.1453 352.5636 0000722 168.3691 191.6588  1.01185460 27097

Volg IUS R/B(2) in realtime met AllMySat

Download on the App Store